Change the Weather History Date:

Tuesday, August 5, 2014

  Actual Average Record
Temperature  
Mean Temperature 75 °F 75 °F  
Max Temperature 87 °F 84 °F 103 °F (1918)
Min Temperature 63 °F 65 °F 46 °F (1951)
Degree Days  
Heating Degree Days 0 0  
Month to date heating degree days 0 0  
Since 1 June heating degree days 1 19  
Since 1 July heating degree days 0 0  
Cooling Degree Days 10 10  
Month to date cooling degree days 47 50  
Year to date cooling degree days 742 658  
Since 1 June cooling degree days 587 576  
Growing Degree Days 25 (Base 50)    
Moisture  
Dew Point 61 °F    
Average Humidity 63    
Maximum Humidity 84    
Minimum Humidity 42    
Precipitation  
Precipitation T in 0.11 in 3.17 in (1995)
Month to date precipitation 0.63 0.59  
Year to date precipitation 26.24 24.96  
Snow  
Snow 0.00 in 0.00 in 0.00 in ()
Month to date snowfall 0.0 0.0  
Since 1 June snowfall 0.0 0.0  
Since 1 July snowfall 0.0 0.0  
Snow Depth 0.00 in    
Sea Level Pressure  
Sea Level Pressure 30.03 in    
Wind  
Wind Speed 3 mph (WSW)    
Max Wind Speed 12 mph    
Max Gust Speed 15 mph    
Visibility 8 miles    
Events      
T = Trace of Precipitation, MM = Missing Value Source: NWS Daily Summary

Daily Weather History Graph

Daily Weather History Graph

Search for Another Location

Airport or City:

Trip Planner

Search our weather history database for the weather conditions in past years. The results will help you decide how hot, cold, wet, or windy it might be!

Date:

Astronomy

Aug. 05, 2014 Rise Set
Actual Time 6:33 AM EDT 8:40 PM EDT
Civil Twilight 6:03 AM EDT 9:10 PM EDT
Nautical Twilight 5:27 AM EDT 9:47 PM EDT
Astronomical Twilight 4:47 AM EDT 10:26 PM EDT
Moon 3:54 PM EDT (8/5) 1:20 AM EDT (8/5)
Length of Visible Light 15h 06m
Length of Day
14h 07m
Waxing Gibbous, 67% of the Moon is Illuminated
Aug 5
Waxing Gibbous
Aug 10
Full
Aug 17
Last Quarter
Aug 25
New
Sep 2
First Quarter

Hourly Weather History & Observations

Time (EDT) Temp. Heat Index Dew Point Humidity Pressure Visibility Wind Dir Wind Speed Gust Speed Precip Events Conditions
1:51 AM 68.0 °F - 60.8 °F 78% 30.06 in 9.0 mi Calm Calm - N/A   Clear
2:51 AM 66.9 °F - 60.1 °F 79% 30.04 in 9.0 mi Calm Calm - N/A   Clear
3:51 AM 66.0 °F - 60.1 °F 81% 30.04 in 9.0 mi SE 3.5 mph - N/A   Clear
4:51 AM 64.4 °F - 59.0 °F 83% 30.06 in 9.0 mi Calm Calm - N/A   Clear
5:51 AM 66.0 °F - 59.0 °F 78% 30.04 in 9.0 mi Calm Calm - N/A   Clear
6:51 AM 64.9 °F - 59.0 °F 81% 30.05 in 7.0 mi Calm Calm - N/A   Scattered Clouds
7:51 AM 68.0 °F - 60.8 °F 78% 30.08 in 7.0 mi Calm Calm - N/A   Mostly Cloudy
8:51 AM 70.0 °F - 61.0 °F 73% 30.06 in 8.0 mi Calm Calm - N/A   Mostly Cloudy
9:51 AM 73.0 °F - 62.1 °F 68% 30.06 in 7.0 mi Calm Calm - N/A   Mostly Cloudy
10:51 AM 77.0 °F - 60.8 °F 57% 30.09 in 10.0 mi South 3.5 mph - N/A   Mostly Cloudy
11:51 AM 82.0 °F 83.0 °F 62.1 °F 51% 30.06 in 8.0 mi Variable 3.5 mph - N/A   Mostly Cloudy
12:51 PM 81.0 °F 81.7 °F 61.0 °F 50% 30.06 in 8.0 mi South 4.6 mph - N/A   Mostly Cloudy
1:51 PM 86.0 °F 86.1 °F 61.0 °F 43% 30.03 in 8.0 mi WNW 6.9 mph - N/A   Mostly Cloudy
2:51 PM 82.9 °F 83.2 °F 60.1 °F 46% 30.01 in 8.0 mi WSW 3.5 mph - N/A   Mostly Cloudy
3:51 PM 82.0 °F 82.4 °F 60.1 °F 47% 30.00 in 9.0 mi WNW 8.1 mph - N/A   Overcast
4:51 PM 86.0 °F 85.7 °F 60.1 °F 41% 29.99 in 9.0 mi NW 9.2 mph - 0.00 in   Mostly Cloudy
5:51 PM 84.0 °F 83.8 °F 59.0 °F 43% 29.99 in 9.0 mi West 5.8 mph - N/A   Scattered Clouds
6:51 PM 82.9 °F 82.8 °F 59.0 °F 44% 29.99 in 9.0 mi NW 8.1 mph - N/A   Mostly Cloudy
7:51 PM 80.6 °F 81.5 °F 60.8 °F 51% 29.99 in 8.0 mi WSW 8.1 mph - N/A   Mostly Cloudy
8:51 PM 79.0 °F - 61.0 °F 54% 29.99 in 9.0 mi Calm Calm - N/A   Mostly Cloudy
9:51 PM 78.1 °F - 64.0 °F 62% 29.99 in 9.0 mi ESE 4.6 mph - N/A   Overcast
10:51 PM 77.0 °F - 63.0 °F 62% 29.99 in 8.0 mi South 3.5 mph - N/A   Overcast
11:51 PM 73.9 °F - 64.0 °F 71% 29.99 in 8.0 mi Calm Calm - 0.00 in   Mostly Cloudy